Weather in Shapsugskaya

Russia / Krasnodar Krai     44°44′45″N   38°04′30″E
temp.,
°C
wind,
m/s
gust,
m/s
humid.,
%
clouds,
%
prec.,
mm/h
press.,
hPa
HPBL,
m
18 may, wed
wed1800:00+12s3789100 0.0 1016318
03:00+12s4108849 0.0 1015421
06:00+12s4118393 0.0 1013562
09:00+16s71168100 0.0 1012894
12:00+18s8135544 0.0 10111148
15:00+18s81356100 0.0 10101105
18:00+14ssw5984100 0.3 1010898
21:00+12sw279796 1.4 1011510
19 may, thu
thu1900:00+10nw369898 0.2 1013328
03:00+9wnw2693100 0.4 1015283
06:00+9sw1291100 0.0 101783
09:00+12w4666100 0.0 10181047
12:00+15wsw684734 0.0 10191910
15:00+14wsw685798 0.2 10191653
18:00+11w478759 1.1 1019915
21:00+9wsw1295100 2.0 102139
20 may, fri
fri2000:00+9ssw229694 0.3 102270
03:00+7s22965 0.3 102229
06:00+9ssw2292100 0.0 102339
09:00+13sw2479100 0.6 1023519
12:00+15w3670100 1.3 10231347
15:00+14w367387 1.9 1022688
18:00+16w35565 0.4 10221314
21:00+10ssw118516 0.4 102319
21 may, sat
sat2100:00+12s3680100 0.0 1022164
03:00+11s3987100 0.0 1020306
06:00+13ssw511876 0.0 1020625
09:00+16sw7126710 0.1 10191067
12:00+17ssw91363100 0.0 10171222
15:00+16ssw9136298 0.0 10161128
18:00+14ssw8147553 0.0 1015872
21:00+13ssw71483100 0.0 1015714
22 may, sun
sun2200:00+13ssw713825 0.0 1014653
03:00+12ssw6138360 0.0 1012575
06:00+13ssw6138229 0.0 1010645
09:00+17ssw7135814 0.0 1008744
12:00+18ssw814528 0.0 1007832
15:00+18ssw6125295 0.0 1006791
18:00+16ssw41066100 0.0 1005615
21:00+13sw2293100 0.1 100666